RH
57 62 66 71 76 78 81 85 89 95 94 90 82 85 94 86 83 81 81 77 79 74 72 73 72 72 75 74 77 77 86 92 82 73 72 77 74 70 68 71 70 67 71
56 59 64 69 74 77 81 83 87 89 94 99 100 99 99 92 89 87 85 83 81 80 79 79 76 74 72 72 72 76 88 88 83 78 80 88 76 67 64 67 67 64 66
60 58 61 66 70 76 79 84 85 90 88 93 95 93 90 90 87 89 90 90 86 80 78 79 78 76 75 76 74 77 79 85 77 79 73 88 89 80 73 71 70 72 73
56 57 60 63 66 70 77 82 86 89 94 87 89 96 100 100 100 100 98 93 91 86 81 79 79 78 76 75 75 77 91 84 82 77 77 73 71 80 84 69 69 73 76
53 55 56 57 59 64 69 76 76 85 89 96 95 96 98 100 99 95 93 91 90 90 87 85 83 80 79 77 76 75 77 96 93 84 78 74 81 77 71 83 67 72 67
49 49 50 53 55 57 62 66 76 75 81 89 94 96 100 100 98 92 94 91 88 89 89 86 86 86 84 82 77 74 73 75 85 96 91 91 83 85 75 76 76 73 65
46 44 46 48 52 58 62 62 66 73 64 77 82 84 87 96 100 100 100 99 94 92 89 89 90 89 89 87 84 79 74 72 73 78 90 89 93 92 81 76 74 76 67
44 45 46 51 55 61 67 66 70 62 58 49 75 73 68 58 64 62 71 80 96 99 87 86 89 92 94 92 88 86 82 78 75 73 75 83 88 90 95 86 78 80 73
48 48 52 57 63 62 66 59 66 51 57 52 47 52 66 52 41 35 36 38 43 70 62 75 83 87 92 94 95 96 98 88 83 78 76 76 88 80 79 91 86 78 84
53 55 61 65 62 57 54 54 54 59 51 52 47 49 57 61 46 32 41 38 35 36 32 39 57 78 83 88 93 96 99 97 96 98 88 78 75 84 92 81 91 90 80
65 66 68 72 68 64 58 65 55 56 50 50 51 43 43 64 55 38 42 44 40 40 38 35 38 46 56 78 90 91 98 98 98 98 99 99 94 83 74 96 83 90 92
72 71 70 74 73 76 67 76 66 62 58 56 54 48 47 56 63 46 45 49 48 42 45 43 48 44 40 42 82 96 100 96 94 98 98 98 99 99 99 88 79 92 87
78 70 69 75 78 82 71 81 69 62 64 63 61 56 58 68 68 51 51 53 52 50 45 48 58 60 56 45 40 89 97 95 94 92 97 98 98 98 99 99 100 94 88
88 78 73 76 80 84 76 90 82 64 69 70 63 63 70 75 64 52 53 54 52 50 46 53 58 61 57 50 62 80 81 93 96 83 80 96 99 98 98 98 99 99 99
90 90 84 81 80 80 75 87 81 68 73 73 65 66 73 67 55 52 54 51 52 46 45 53 53 50 50 59 78 78 79 78 77 74 71 73 92 100 99 98 98 98 99
91 85 81 81 80 79 80 90 80 73 77 73 64 61 68 56 50 51 54 51 50 44 48 51 50 47 55 75 77 76 77 77 78 72 66 54 83 93 100 100 98 98 99
94 88 80 77 76 75 81 86 71 72 74 69 57 55 58 48 46 51 52 53 48 53 53 51 47 56 57 68 74 74 75 75 70 67 69 74 70 75 73 87 99 96 98
89 76 73 76 74 74 79 66 68 68 69 64 53 51 46 45 46 50 52 47 50 54 56 57 58 61 58 63 69 71 72 70 72 71 72 66 63 61 86 91 98 92 89
72 73 75 72 72 77 64 65 67 64 65 57 48 48 45 46 49 48 45 45 50 52 57 58 61 56 58 67 67 68 70 70 71 69 69 67 66 66 71 72 94 97 94
71 72 68 71 72 61 62 62 63 61 62 48 46 46 45 49 50 47 45 46 48 54 58 58 58 61 59 64 68 68 68 69 66 65 65 68 69 66 66 67 74 97 89
68 70 69 62 60 59 60 60 60 60 50 44 45 46 47 49 50 47 47 49 53 58 54 59 63 60 61 61 66 66 68 68 68 73 78 76 68 65 63 63 66 73 83
72 64 63 59 57 58 58 59 60 53 43 44 46 47 48 50 50 50 52 57 62 56 60 67 69 66 62 66 66 71 70 70 76 71 77 72 64 79 89 85 93 87 75
70 64 61 59 58 57 56 59 56 46 46 48 47 48 49 51 53 57 62 65 60 64 70 70 72 74 71 73 77 69 63 63 61 68 68 72 76 65 67 85 89 86 86
70 64 63 63 62 58 58 56 49 47 49 50 52 53 53 56 65 66 64 67 72 74 75 78 83 85 93 95 83 75 77 91 92 88 81 76 75 88 70 70 71 68 76
68 65 65 64 62 60 54 48 50 51 53 56 57 57 57 60 63 71 75 78 82 85 93 99 99 98 94 90 81 90 83 83 83 71 91 97 86 79 80 78 83 78 75
67 66 65 63 55 53 53 53 54 56 58 61 64 63 65 69 75 82 87 87 89 86 83 81 83 88 79 74 75 71 67 66 75 92 90 84 78 79 86 93 96 96 93
Wind_Speed
17 21 23 26 28 33 35 37 39 36 30 26 16 16 21 22 22 21 18 17 18 12 7 5 5 4 5 5 7 8 7 7 9 7 10 14 15 15 15 15 12 13 13
14 20 24 27 30 29 30 34 36 38 36 29 22 10 12 13 22 23 22 21 20 15 12 11 11 9 5 7 8 10 7 7 8 3 2 3 4 13 19 20 19 18 16
12 17 22 26 28 30 32 31 32 33 39 34 29 21 16 18 23 25 24 23 21 19 15 12 10 9 10 12 8 9 12 10 10 11 6 1 3 4 5 13 21 18 19
14 18 21 25 27 28 29 30 32 34 33 38 36 34 25 22 21 24 22 20 21 19 17 15 14 12 10 8 10 11 11 14 15 15 17 17 5 2 4 4 7 12 19
13 16 20 21 24 27 28 29 31 33 34 32 33 31 30 24 24 26 24 24 23 22 21 19 17 16 15 14 11 10 11 12 17 18 17 16 21 15 6 4 5 9 13
12 17 18 19 22 25 27 28 28 32 32 33 32 31 27 27 30 32 31 30 27 26 25 23 21 19 18 17 16 15 12 13 13 19 20 20 10 10 11 6 10 12 20
9 14 17 19 21 24 27 25 29 30 31 30 31 30 29 27 25 27 26 28 31 30 29 27 25 24 22 20 19 17 16 15 15 17 19 21 24 24 20 18 10 10 15
11 14 17 18 20 22 24 26 26 28 29 29 26 27 27 27 25 25 25 25 24 25 26 26 24 23 22 22 21 19 18 18 17 17 19 24 25 25 24 21 15 3 7
9 14 16 18 20 23 24 26 25 27 26 26 25 24 24 25 25 24 23 24 24 22 24 24 25 24 22 22 22 21 20 20 20 19 18 19 22 29 30 27 26 17 7
8 13 15 18 21 22 23 23 24 25 25 24 25 22 22 22 23 24 24 24 24 24 25 25 24 24 23 22 21 22 21 23 21 19 22 21 19 19 25 31 29 29 21
6 10 14 15 18 20 22 22 24 24 25 24 24 24 23 21 23 25 23 24 24 24 25 25 25 24 24 23 21 20 21 23 23 22 21 22 23 22 19 19 30 27 24
7 10 13 13 17 18 21 19 21 22 22 22 22 23 22 21 23 25 24 24 25 24 24 24 24 25 24 23 21 20 21 24 24 23 23 23 23 23 24 22 21 19 28
6 8 11 12 14 16 20 17 21 21 21 21 21 22 21 21 22 25 24 23 25 24 24 23 23 25 25 25 20 20 21 23 24 24 22 23 22 21 22 24 25 24 21
4 6 10 12 14 16 20 17 21 21 21 20 21 21 20 20 23 24 23 24 24 25 25 23 23 23 24 23 19 22 24 24 25 26 25 23 21 21 22 22 23 23 23
3 4 10 14 17 19 21 18 22 21 20 21 21 21 19 21 23 23 24 25 24 25 24 24 24 24 23 23 24 23 23 25 28 30 28 26 23 23 21 21 20 20 20
4 9 14 17 19 20 21 21 23 21 20 22 22 21 19 22 23 24 24 25 25 27 26 25 26 26 23 23 22 22 25 25 26 30 32 28 24 23 22 22 22 21 21
5 9 17 19 21 22 22 23 24 22 22 23 24 23 21 24 27 26 26 25 27 25 25 27 26 25 26 23 23 23 25 28 29 29 27 28 27 25 26 26 24 24 23
6 17 19 21 21 22 22 24 21 22 23 24 24 22 22 27 28 27 26 28 27 26 26 25 23 24 27 26 26 26 27 28 27 25 24 28 28 26 24 26 28 28 27
15 17 17 19 21 20 22 21 22 23 22 24 23 20 24 27 25 27 29 27 26 27 24 22 22 26 28 23 26 26 27 25 26 26 24 24 26 25 23 25 27 26 27
15 16 18 19 18 20 19 21 22 23 22 23 21 22 26 23 25 27 25 25 26 23 21 25 24 23 27 23 22 24 26 26 25 24 24 22 23 23 23 26 27 25 28
18 18 17 18 19 19 18 22 23 23 23 21 22 25 24 24 24 24 23 24 25 22 26 26 24 27 21 23 22 22 24 25 27 26 24 23 25 26 27 28 31 30 30
18 17 18 20 20 19 19 22 24 23 21 24 25 24 26 25 22 22 24 23 23 24 24 24 24 22 25 22 23 24 25 26 27 26 25 26 27 30 31 30 27 29 31
19 20 20 21 23 22 20 23 22 24 26 25 26 28 27 25 23 23 22 21 22 23 22 22 23 24 24 23 23 25 25 23 25 26 29 31 31 30 30 29 29 29 27
18 19 20 22 26 23 22 21 27 25 24 27 28 27 26 24 23 22 24 22 22 22 22 25 25 26 24 22 24 28 30 28 25 27 31 30 31 30 31 29 29 27 25
19 20 21 22 24 24 27 29 27 25 28 27 26 25 24 24 26 23 22 24 25 24 26 26 23 25 25 25 29 30 28 29 28 33 26 21 24 24 23 24 25 25 23
22 22 23 22 26 27 28 30 28 27 26 26 24 23 23 23 23 24 25 25 24 24 26 27 27 28 29 31 30 31 30 30 29 17 17 19 20 20 21 20 20 20 17
Wind_Direction
46 41 36 31 28 29 26 27 29 29 32 30 24 34 45 39 49 54 47 45 38 39 26 1 6 330 267 262 249 263 248 214 224 242 262 270 260 254 261 252 255 250 245
44 41 36 33 31 28 27 27 27 29 33 34 30 28 28 31 42 48 51 45 43 39 33 26 23 18 329 269 261 249 237 218 223 232 271 301 290 254 257 258 250 252 257
43 40 37 34 30 29 28 27 27 27 32 36 38 47 46 32 25 29 36 38 41 42 37 27 16 9 11 0 325 268 257 249 243 228 224 322 243 317 283 249 247 246 247
47 43 39 35 31 28 29 30 31 31 28 33 39 41 36 29 13 18 19 25 29 33 28 23 18 13 3 349 350 341 282 269 258 247 242 246 245 191 319 316 277 256 251
51 44 40 39 34 30 29 30 32 34 33 32 33 34 33 26 22 23 22 24 25 25 20 16 8 3 359 352 342 333 331 283 266 262 254 256 246 242 214 261 273 265 267
56 49 43 39 35 31 30 28 30 31 35 34 34 33 27 22 20 19 18 17 17 17 16 14 9 0 351 345 340 335 316 317 300 272 262 253 241 224 218 232 247 257 278
60 52 43 36 33 30 27 27 27 27 30 34 31 31 31 27 21 16 12 10 10 10 8 8 8 5 358 347 336 331 326 316 312 300 278 274 269 263 260 254 258 244 271
57 52 44 39 32 27 25 26 25 25 27 29 30 28 28 27 25 19 17 15 7 2 1 3 3 3 1 357 350 338 331 324 323 305 279 284 279 275 269 251 239 259 253
53 45 40 36 29 25 23 22 22 22 25 24 25 22 22 20 16 14 14 12 9 2 1 3 1 0 359 358 357 352 345 328 323 322 318 306 291 276 276 272 254 236 252
53 40 34 27 21 19 18 19 20 18 17 18 18 13 14 12 9 9 8 6 4 2 0 360 360 359 358 356 355 353 350 344 334 325 318 317 320 304 280 271 270 258 244
65 43 27 19 15 14 14 14 13 11 10 10 8 8 8 5 4 5 4 2 359 359 357 356 354 354 354 354 353 350 349 349 343 338 332 315 311 314 313 306 269 262 257
74 39 19 10 7 7 7 8 7 6 3 1 0 1 0 1 0 0 360 359 357 356 354 352 351 350 348 348 349 350 350 345 342 338 338 333 324 307 301 309 303 303 259
76 31 9 3 1 359 359 360 1 359 357 357 356 357 358 358 357 355 354 355 353 352 351 350 349 346 344 342 342 344 344 337 337 332 331 331 331 328 319 303 301 300 305
66 2 348 350 353 353 352 354 352 354 354 357 356 356 357 357 351 350 350 351 350 347 347 347 344 342 338 336 341 339 333 329 327 325 324 321 319 322 323 319 310 297 296
1 314 329 342 344 345 347 349 349 351 352 353 353 352 351 350 347 347 347 345 345 343 342 341 339 338 337 337 330 324 324 324 323 319 318 315 314 307 307 310 315 309 300
314 320 330 335 337 338 341 340 342 345 347 346 345 345 343 343 343 343 341 341 339 339 339 337 335 335 337 329 325 319 318 318 319 318 315 315 311 310 307 303 302 297 298
275 307 324 325 329 333 335 332 335 338 340 340 340 341 338 337 337 338 337 337 337 338 336 332 334 333 330 327 320 317 314 313 313 313 314 314 311 306 309 307 301 293 292
297 316 319 320 324 327 326 328 329 332 332 332 332 334 333 330 333 332 332 333 335 332 329 330 329 326 324 322 319 315 312 311 310 310 309 308 308 308 304 300 301 299 294
301 302 307 310 313 315 322 321 319 323 321 323 325 324 324 325 325 325 326 328 326 325 325 323 323 321 321 321 317 316 315 311 308 307 306 305 304 307 301 292 288 298 301
303 303 308 305 306 313 314 313 311 313 310 316 316 314 318 316 315 318 319 318 319 315 316 317 319 321 315 322 318 315 311 308 307 306 302 301 300 301 300 298 301 290 288
308 308 306 302 303 308 307 303 303 302 309 310 306 308 310 311 311 309 309 310 310 308 312 314 315 318 318 318 320 319 314 308 304 304 307 306 302 299 298 293 289 290 292
307 310 303 303 303 304 304 299 296 303 306 303 304 301 305 305 302 301 301 302 303 306 308 308 307 305 309 313 315 314 312 308 308 306 305 305 299 297 298 297 297 288 283
301 306 302 301 301 303 302 293 291 301 302 300 297 299 301 297 296 295 294 297 299 300 301 300 295 295 298 297 307 311 308 307 304 299 297 298 302 299 295 296 295 293 296
296 302 298 293 294 301 298 283 297 299 293 292 293 293 290 293 294 291 290 288 290 292 292 288 286 288 289 293 299 293 288 290 294 291 289 291 291 297 303 301 301 298 295
293 292 287 284 285 291 291 298 296 293 291 288 286 283 281 283 287 284 282 285 285 285 280 280 286 296 295 296 296 300 306 300 298 300 300 294 291 288 290 296 296 289 289
290 286 283 280 285 288 289 290 291 291 286 281 281 280 281 281 281 281 283 285 285 287 288 290 291 294 295 299 301 300 302 304 308 1 357 339 330 329 327 325 328 332 335